This is the latest recevied weather packets stored in our database for station/object SP6KBU-12. If no packets are shown the sender has not sent any weather packets the latest 10 day(s).
| Time | Temp. | Humidity | Pressure | Rain* | Wind** | Luminosity | Snow |
|---|---|---|---|---|---|---|---|
| 1778181444 | 7.22° C | 86% | 1018 hPa | - | - | - | - |
| 1778180544 | 7.22° C | 86% | 1017.9 hPa | - | - | - | - |
| 1778179644 | 7.22° C | 86% | 1017.5 hPa | - | - | - | - |
| 1778178744 | 7.22° C | 86% | 1017.5 hPa | - | - | - | - |
| 1778177844 | 7.22° C | 85% | 1017.3 hPa | - | - | - | - |
| 1778176944 | 7.22° C | 85% | 1017.2 hPa | - | - | - | - |
| 1778176043 | 7.22° C | 85% | 1017.2 hPa | - | - | - | - |
| 1778175144 | 7.22° C | 86% | 1017 hPa | - | - | - | - |
| 1778174244 | 7.22° C | 86% | 1016.6 hPa | - | - | - | - |
| 1778173344 | 7.78° C | 85% | 1016.4 hPa | - | - | - | - |
| 1778172444 | 7.78° C | 85% | 1016 hPa | - | - | - | - |
| 1778171545 | 7.78° C | 85% | 1016.1 hPa | - | - | - | - |
| 1778170645 | 7.78° C | 85% | 1016.2 hPa | - | - | - | - |
| 1778169745 | 7.78° C | 85% | 1016 hPa | - | - | - | - |
| 1778168846 | 7.78° C | 85% | 1015.9 hPa | - | - | - | - |
| 1778167946 | 8.33° C | 85% | 1015.9 hPa | - | - | - | - |
| 1778167046 | 7.78° C | 84% | 1015.6 hPa | - | - | - | - |
| 1778166147 | 8.33° C | 84% | 1015.7 hPa | - | - | - | - |
| 1778165247 | 8.89° C | 84% | 1015.6 hPa | - | - | - | - |
| 1778164347 | 9.44° C | 83% | 1015.6 hPa | - | - | - | - |
| 1778163447 | 10° C | 83% | 1015.5 hPa | - | - | - | - |
| 1778162547 | 9.44° C | 83% | 1015.4 hPa | - | - | - | - |
| 1778161648 | 8.89° C | 84% | 1015.5 hPa | - | - | - | - |
| 1778160747 | 8.89° C | 83% | 1015.5 hPa | - | - | - | - |
| 1778159847 | 9.44° C | 84% | 1015.4 hPa | - | - | - | - |
* Rain since midnight (hover to see other rain measurements)
** Current wind speed in m/s (hover to see current wind gust speed)